EUTE 21B

导读

EUTE 21B(Eutelsat 21B)由欧洲通信卫星组织(EUTELSAT,缩写EUTE)发射,于北京时间2012年11月10日送入太空,定位于东经21.6°轨道。它是一颗通信卫星,配备多个转发器,主要为欧洲、非洲和中东区域提供广播电视传输、宽带通信等服务,支持高清电视信号分发与企业通信组网,接替原有卫星服务,设计寿命超过15年,至今仍为区域通信提供支撑。

Basic Information
目录编号:
38992
目录名称:
EUTE 21B
国际标识:
2012-062B
轨道中心:
EARTH
卫星名称:
EUTE 21B
卫星全名:
--
卫星状态:
在轨 (已飞行4965 天)
发射日期:
2012-11-10 UTC
国别 :
(EUTE)
星等 :
--
Orbit Information
数据来源 国际轨道数据 AOE轨道数据
星历时间 2026-06-15T03:39:38+0800
8小时前
查看轨道信息
2026-06-15T05:00:00+0800
6小时前
查看轨道信息
半长轴 42164.14km 42164.112km
偏心率 0.0003092 0.0002996
轨道倾角 0.067° 0.067°
近地点辐角 75.713° 71.108°
升交点赤经 7.054° 9.268°
平近点角 136.850° 159.387°
近地点 35772.965km 35773.342km
远地点 35799.041km 35798.608km
周期 1436.067分钟 1436.065分钟
每日圈数 1.002739 1.00274
Detailed Information
使用方式:
暂无
2D Orbit Map
3D Orbit Map
Orbit Altitude Analysis Chart
Orbit Inclination Analysis Chart
Orbit Comprehensive Analysis Chart
View Comprehensive Chart